When you browse on this site, cookies collect data to enhance your experience and personalize the content and advertising you see.
Visit our Privacy Policy to learn more. By continuing to use the site, you agree to this use of cookies and data.

Hourly Weather Kyrova

Today, 13 August, Thursday

Time Temperature Precipitation Wind Pressure Humidity
00:00 +6°C° 0 mm 1 mps 742 mmHg 88%
01:00 +5°C° 0 mm 1 mps 742 mmHg 90%
02:00 +5°C° 0 mm 1 mps 742 mmHg 91%
03:00 +5°C° 0 mm 1 mps 743 mmHg 92%
04:00 +4°C° 0 mm 1 mps 743 mmHg 92%
05:00 +6°C° 0 mm 1 mps 743 mmHg 86%
06:00 +7°C° 0 mm 1 mps 743 mmHg 79%
07:00 +9°C° 0 mm 1 mps 743 mmHg 72%
08:00 +9°C° 0 mm 2 mps 743 mmHg 66%
09:00 +12°C° 0 mm 2 mps 743 mmHg 59%
10:00 +14°C° 0 mm 2 mps 742 mmHg 52%
11:00 +15°C° 0 mm 2 mps 742 mmHg 49%
12:00 +16°C° 0 mm 2 mps 742 mmHg 46%
13:00 +18°C° 0 mm 2 mps 742 mmHg 43%
14:00 +18°C° 0 mm 2 mps 742 mmHg 43%
15:00 +18°C° 0 mm 2 mps 742 mmHg 44%
16:00 +18°C° 0 mm 2 mps 742 mmHg 44%
17:00 +16°C° 0 mm 2 mps 741 mmHg 52%
18:00 +15°C° 0 mm 2 mps 741 mmHg 60%
19:00 +14°C° 0 mm 1 mps 741 mmHg 68%
20:00 +12°C° 0 mm 1 mps 741 mmHg 72%
21:00 +10°C° 0 mm 1 mps 741 mmHg 75%
22:00 +9°C° 0 mm 1 mps 742 mmHg 79%
23:00 +8°C° 0 mm 1 mps 742 mmHg 81%

Tomorrow, 14 August, Friday

Time Temperature Precipitation Wind Pressure Humidity
00:00 +8°C° 0 mm 1 mps 742 mmHg 82%
01:00 +8°C° 0 mm 1 mps 742 mmHg 84%
02:00 +8°C° 0 mm 1 mps 742 mmHg 85%
03:00 +7°C° 0 mm 1 mps 742 mmHg 86%
04:00 +7°C° 0 mm 1 mps 742 mmHg 87%
05:00 +9°C° 0 mm 1 mps 742 mmHg 80%
06:00 +10°C° 0 mm 1 mps 742 mmHg 74%
07:00 +12°C° 0 mm 2 mps 742 mmHg 68%
08:00 +14°C° 0 mm 2 mps 742 mmHg 61%
09:00 +16°C° 0 mm 2 mps 742 mmHg 54%
10:00 +17°C° 0 mm 3 mps 742 mmHg 48%
11:00 +18°C° 0 mm 3 mps 741 mmHg 47%
12:00 +18°C° 0 mm 3 mps 741 mmHg 46%
13:00 +19°C° 0 mm 3 mps 741 mmHg 45%
14:00 +19°C° 0 mm 3 mps 741 mmHg 45%
15:00 +19°C° 0 mm 3 mps 741 mmHg 46%
16:00 +19°C° 0 mm 3 mps 741 mmHg 47%
17:00 +17°C° 0 mm 2 mps 741 mmHg 54%
18:00 +16°C° 0 mm 2 mps 741 mmHg 62%
19:00 +15°C° 0 mm 2 mps 741 mmHg 69%
20:00 +13°C° 0 mm 2 mps 741 mmHg 72%
21:00 +12°C° 0 mm 2 mps 741 mmHg 75%
22:00 +10°C° 0 mm 2 mps 742 mmHg 78%
23:00 +9°C° 0 mm 2 mps 742 mmHg 82%

Day after tomorrow, 15 August, Saturday

Time Temperature Precipitation Wind Pressure Humidity
00:00 +8°C° 0 mm 2 mps 742 mmHg 85%
01:00 +8°C° 0 mm 2 mps 742 mmHg 88%
02:00 +8°C° 0 mm 2 mps 742 mmHg 88%
03:00 +7°C° 0 mm 2 mps 742 mmHg 88%
04:00 +7°C° 0 mm 2 mps 742 mmHg 88%
05:00 +9°C° 0 mm 3 mps 742 mmHg 82%
06:00 +10°C° 0 mm 3 mps 742 mmHg 76%
07:00 +11°C° 0 mm 4 mps 742 mmHg 69%
08:00 +12°C° 0 mm 4 mps 742 mmHg 64%
09:00 +14°C° 0 mm 4 mps 742 mmHg 59%
10:00 +15°C° 0 mm 4 mps 742 mmHg 54%
11:00 +15°C° 0 mm 4 mps 742 mmHg 53%
12:00 +17°C° 0 mm 4 mps 742 mmHg 53%
13:00 +17°C° 0 mm 4 mps 741 mmHg 52%
14:00 +16°C° 0.2 mm 3 mps 741 mmHg 61%
15:00 +14°C° 0.2 mm 3 mps 741 mmHg 69%
16:00 +13°C° 0.2 mm 3 mps 741 mmHg 77%
17:00 +13°C° 0.4 mm 2 mps 741 mmHg 80%
18:00 +13°C° 0.4 mm 2 mps 741 mmHg 83%
19:00 +12°C° 0.4 mm 1 mps 741 mmHg 86%
20:00 +12°C° 0 mm 1 mps 741 mmHg 87%
21:00 +11°C° 0 mm 1 mps 741 mmHg 88%
22:00 +10°C° 0 mm 1 mps 741 mmHg 89%
23:00 +10°C° 0 mm 1 mps 741 mmHg 90%

16 August, Sunday

Time Temperature Precipitation Wind Pressure Humidity
00:00 +9°C° 0 mm 1 mps 741 mmHg 90%
01:00 +9°C° 0 mm 1 mps 741 mmHg 90%
02:00 +8°C° 0 mm 2 mps 741 mmHg 91%
03:00 +8°C° 0 mm 2 mps 741 mmHg 91%
04:00 +7°C° 0 mm 2 mps 741 mmHg 91%
05:00 +9°C° 0 mm 2 mps 740 mmHg 88%
06:00 +10°C° 0 mm 2 mps 740 mmHg 84%
07:00 +12°C° 0 mm 2 mps 740 mmHg 81%
08:00 +14°C° 0 mm 2 mps 740 mmHg 72%
09:00 +14°C° 0 mm 3 mps 740 mmHg 62%
10:00 +17°C° 0 mm 3 mps 740 mmHg 53%
11:00 +18°C° 0 mm 3 mps 739 mmHg 52%
12:00 +18°C° 0 mm 2 mps 739 mmHg 51%
13:00 +18°C° 0 mm 2 mps 739 mmHg 50%
14:00 +18°C° 0.1 mm 2 mps 738 mmHg 52%
15:00 +18°C° 0.1 mm 2 mps 738 mmHg 54%
16:00 +18°C° 0.1 mm 2 mps 738 mmHg 56%
17:00 +16°C° 0.1 mm 1 mps 737 mmHg 65%
18:00 +15°C° 0.1 mm 1 mps 737 mmHg 73%
19:00 +14°C° 0.1 mm 1 mps 737 mmHg 81%
20:00 +13°C° 0 mm 1 mps 737 mmHg 83%
21:00 +12°C° 0 mm 1 mps 737 mmHg 85%
22:00 +10°C° 0 mm 1 mps 736 mmHg 87%
23:00 +10°C° 0 mm 1 mps 736 mmHg 89%

17 August, Monday

Time Temperature Precipitation Wind Pressure Humidity
00:00 +9°C° 0 mm 1 mps 736 mmHg 91%
01:00 +8°C° 0 mm 0 mps 736 mmHg 93%
02:00 +8°C° 0 mm 1 mps 735 mmHg 93%
03:00 +8°C° 0 mm 1 mps 735 mmHg 94%
04:00 +8°C° 0 mm 1 mps 735 mmHg 94%
05:00 +9°C° 0 mm 1 mps 734 mmHg 92%
06:00 +10°C° 0 mm 1 mps 734 mmHg 89%
07:00 +11°C° 0 mm 1 mps 734 mmHg 86%
08:00 +13°C° 0 mm 1 mps 733 mmHg 79%
09:00 +15°C° 0 mm 1 mps 733 mmHg 71%
10:00 +16°C° 0 mm 1 mps 733 mmHg 63%
11:00 +18°C° 0.1 mm 1 mps 732 mmHg 60%
12:00 +18°C° 0.1 mm 1 mps 732 mmHg 58%
13:00 +18°C° 0.1 mm 2 mps 732 mmHg 55%
14:00 +17°C° 0.2 mm 2 mps 732 mmHg 66%
15:00 +15°C° 0.2 mm 2 mps 732 mmHg 77%
16:00 +14°C° 0.2 mm 2 mps 731 mmHg 88%
17:00 +13°C° 0.8 mm 2 mps 731 mmHg 91%
18:00 +12°C° 0.8 mm 1 mps 731 mmHg 95%
19:00 +11°C° 0.8 mm 1 mps 731 mmHg 98%
20:00 +11°C° 0.5 mm 1 mps 731 mmHg 99%
21:00 +11°C° 0.5 mm 1 mps 731 mmHg 99%
22:00 +11°C° 0.5 mm 1 mps 731 mmHg 99%
23:00 +11°C° 0.3 mm 1 mps 731 mmHg 99%

18 August, Tuesday

Time Temperature Precipitation Wind Pressure Humidity
00:00 +11°C° 0.3 mm 1 mps 731 mmHg 98%
01:00 +10°C° 0.3 mm 2 mps 731 mmHg 98%
02:00 +9°C° 0.1 mm 2 mps 730 mmHg 98%
03:00 +8°C° 0.1 mm 2 mps 730 mmHg 98%
04:00 +7°C° 0.1 mm 2 mps 730 mmHg 97%
05:00 +7°C° 0 mm 2 mps 731 mmHg 97%
06:00 +7°C° 0 mm 2 mps 731 mmHg 96%
07:00 +7°C° 0 mm 2 mps 731 mmHg 95%
08:00 +9°C° 0 mm 2 mps 731 mmHg 88%
09:00 +11°C° 0 mm 3 mps 731 mmHg 80%
10:00 +12°C° 0 mm 3 mps 731 mmHg 72%
11:00 +13°C° 0.1 mm 3 mps 731 mmHg 66%
12:00 +14°C° 0.1 mm 4 mps 731 mmHg 59%
13:00 +15°C° 0.1 mm 4 mps 731 mmHg 52%
14:00 +17°C° 0.1 mm 4 mps 731 mmHg 51%
15:00 +17°C° 0.1 mm 4 mps 731 mmHg 50%
16:00 +17°C° 0.1 mm 4 mps 731 mmHg 49%
17:00 +14°C° 0 mm 3 mps 731 mmHg 58%
18:00 +13°C° 0 mm 3 mps 731 mmHg 66%
19:00 +13°C° 0 mm 2 mps 731 mmHg 75%
20:00 +10°C° 0 mm 2 mps 731 mmHg 82%
21:00 +10°C° 0 mm 1 mps 731 mmHg 88%
22:00 +9°C° 0 mm 1 mps 731 mmHg 95%
23:00 +8°C° 0 mm 1 mps 731 mmHg 96%
Show more